| time (UTC) | temp F | wind direction | speed MPH | gust MPH | rain 1hr in | rain 24hr in | rain mn in | humidity % | barometer mb |
| 20260503024551 | 84 | 72 | 0.0 | 0.0 | 0.00 | 0.00 | 0.00 | 15 | 1006.4 |
| 20260503023046 | 85 | 72 | 0.0 | 0.0 | 0.00 | 0.00 | 0.00 | 15 | 1006.3 |
| 20260503021547 | 86 | 75 | 0.0 | 0.0 | 0.00 | 0.00 | 0.00 | 14 | 1006.3 |
| 20260503020046 | 88 | 75 | 0.0 | 0.0 | 0.00 | 0.00 | 0.00 | 13 | 1006.3 |
| 20260503014547 | 89 | 85 | 0.0 | 3.0 | 0.00 | 0.00 | 0.00 | 13 | 1006.5 |
| 20260503013041 | 90 | 138 | 0.0 | 5.0 | 0.00 | 0.00 | 0.00 | 12 | 1006.5 |
| 20260503011543 | 91 | 314 | 1.0 | 4.0 | 0.00 | 0.00 | 0.00 | 12 | 1006.6 |
| 20260503010044 | 92 | 186 | 0.0 | 5.0 | 0.00 | 0.00 | 0.00 | 12 | 1006.5 |
| 20260503004539 | 92 | 138 | 0.0 | 4.0 | 0.00 | 0.00 | 0.00 | 12 | 1006.6 |
| 20260503003039 | 93 | 276 | 0.0 | 4.0 | 0.00 | 0.00 | 0.00 | 11 | 1006.6 |
| 20260503001536 | 94 | 51 | 1.0 | 3.0 | 0.00 | 0.00 | 0.00 | 11 | 1006.7 |
| 20260503000036 | 94 | 117 | 0.0 | 4.0 | 0.00 | 0.00 | 0.00 | 12 | 1006.8 |
| 20260502234535 | 92 | 348 | 2.0 | 4.0 | 0.00 | 0.00 | 0.00 | 12 | 1006.8 |
| 20260502233036 | 93 | 176 | 1.0 | 11.0 | 0.00 | 0.00 | 0.00 | 12 | 1006.9 |
| 20260502231533 | 95 | 179 | 1.0 | 9.0 | 0.00 | 0.00 | 0.00 | 11 | 1006.9 |
| 20260502230031 | 94 | 134 | 1.0 | 7.0 | 0.00 | 0.00 | 0.00 | 12 | 1007.0 |
| 20260502224528 | 94 | 204 | 3.0 | 9.0 | 0.00 | 0.00 | 0.00 | 11 | 1007.3 |
| 20260502223026 | 91 | 18 | 1.0 | 7.0 | 0.00 | 0.00 | 0.00 | 13 | 1007.5 |
| 20260502221525 | 94 | 259 | 0.0 | 6.0 | 0.00 | 0.00 | 0.00 | 12 | 1007.7 |
| 20260502220025 | 95 | 120 | 1.0 | 7.0 | 0.00 | 0.00 | 0.00 | 12 | 1007.9 |
| 20260502214527 | 94 | 92 | 2.0 | 11.0 | 0.00 | 0.00 | 0.00 | 12 | 1008.2 |
| 20260502213017 | 94 | 111 | 1.0 | 9.0 | 0.00 | 0.00 | 0.00 | 11 | 1008.3 |
| 20260502211527 | 93 | 354 | 4.0 | 8.0 | 0.00 | 0.00 | 0.00 | 12 | 1008.7 |
| 20260502210012 | 91 | 9 | 1.0 | 7.0 | 0.00 | 0.00 | 0.00 | 16 | 1008.8 |
| 20260502204510 | 91 | 129 | 2.0 | 0.0 | 0.00 | 0.00 | 0.00 | 16 | 1008.9 |
| 20260502203006 | 0 | 0.0 | 0.0 | 0.00 | 0.00 | 0.00 | 1009.2 | ||
| 20260502201502 | 0 | 0.0 | 0.0 | 0.00 | 0.00 | 0.00 | 1009.5 | ||
| 20260502200106 | 0 | 0.0 | 0.0 | 0.00 | 0.00 | 0.00 | 1009.7 | ||
| 20260502194606 | 0 | 0.0 | 0.0 | 0.00 | 0.00 | 0.00 | 1009.9 | ||
| 20260502193049 | 0 | 0.0 | 0.0 | 0.00 | 0.00 | 0.00 | 1010.1 | ||
| 20260502191544 | 0 | 0.0 | 0.0 | 0.00 | 0.00 | 0.00 | 1010.3 | ||
| 20260502190040 | 0 | 0.0 | 0.0 | 0.00 | 0.00 | 0.00 | 1010.5 | ||
| 20260502184547 | 0 | 0.0 | 0.0 | 0.00 | 0.00 | 0.00 | 1010.8 | ||
| 20260502183031 | 0 | 0.0 | 0.0 | 0.00 | 0.00 | 0.00 | 1010.9 | ||
| 20260502181529 | 88 | 158 | 7.0 | 13.0 | 0.00 | 0.00 | 0.00 | 21 | 1011.3 |
| 20260502163017 | 84 | 103 | 7.0 | 13.0 | 0.00 | 0.00 | 0.00 | 27 | 1011.8 |
| 20260502161513 | 83 | 117 | 4.0 | 10.0 | 0.00 | 0.00 | 0.00 | 27 | 1011.8 |
| 20260502151504 | 81 | 113 | 2.0 | 6.0 | 0.00 | 0.00 | 0.00 | 30 | 1011.4 |
| 20260502123033 | 64 | 9 | 0.0 | 0.0 | 0.00 | 0.00 | 0.00 | 38 | 1009.6 |
| 20260502121529 | 65 | 9 | 0.0 | 0.0 | 0.00 | 0.00 | 0.00 | 37 | 1009.4 |
| 20260502114525 | 67 | 336 | 0.0 | 1.0 | 0.00 | 0.00 | 0.00 | 35 | 1009.3 |
| 20260502113024 | 68 | 294 | 0.0 | 1.0 | 0.00 | 0.00 | 0.00 | 34 | 1009.1 |
| 20260502111525 | 66 | 122 | 0.0 | 0.0 | 0.00 | 0.00 | 0.00 | 34 | 1009.1 |
| 20260502110023 | 67 | 163 | 0.0 | 0.0 | 0.00 | 0.00 | 0.00 | 34 | 1009.1 |
| 20260502104529 | 66 | 163 | 0.0 | 1.0 | 0.00 | 0.00 | 0.00 | 34 | 1009.0 |
| 20260502103017 | 67 | 20 | 0.0 | 0.0 | 0.00 | 0.00 | 0.00 | 34 | 1008.9 |
| 20260502101515 | 68 | 20 | 0.0 | 0.0 | 0.00 | 0.00 | 0.00 | 33 | 1008.8 |
| 20260502091505 | 70 | 67 | 0.0 | 1.0 | 0.00 | 0.00 | 0.00 | 29 | 1008.5 |
| 20260502080106 | 73 | 104 | 0.0 | 1.0 | 0.00 | 0.00 | 0.00 | 29 | 1008.4 |
| 20260502070047 | 74 | 157 | 1.0 | 4.0 | 0.00 | 0.00 | 0.00 | 27 | 1008.0 |
| 20260502064546 | 74 | 130 | 2.0 | 4.0 | 0.00 | 0.00 | 0.00 | 29 | 1008.1 |
| 20260502063045 | 74 | 136 | 0.0 | 1.0 | 0.00 | 0.00 | 0.00 | 29 | 1008.0 |
| 20260502061545 | 75 | 145 | 0.0 | 1.0 | 0.00 | 0.00 | 0.00 | 29 | 1007.8 |
| 20260502060044 | 76 | 152 | 0.0 | 1.0 | 0.00 | 0.00 | 0.00 | 28 | 1007.7 |
| 20260502054544 | 76 | 142 | 0.0 | 3.0 | 0.00 | 0.00 | 0.00 | 27 | 1007.6 |
| 20260502053052 | 76 | 129 | 0.0 | 1.0 | 0.00 | 0.00 | 0.00 | 28 | 1007.5 |
| 20260502051555 | 76 | 141 | 0.0 | 1.0 | 0.00 | 0.00 | 0.00 | 26 | 1007.5 |
| 20260502050042 | 77 | 139 | 0.0 | 1.0 | 0.00 | 0.00 | 0.00 | 24 | 1007.4 |
| 20260502044543 | 77 | 158 | 0.0 | 1.0 | 0.00 | 0.00 | 0.00 | 24 | 1007.4 |
| 20260502043142 | 77 | 174 | 0.0 | 1.0 | 0.00 | 0.00 | 0.00 | 24 | 1007.3 |
| 20260502041542 | 78 | 142 | 0.0 | 0.0 | 0.00 | 0.00 | 0.00 | 24 | 1007.1 |
| 20260502040041 | 77 | 149 | 0.0 | 1.0 | 0.00 | 0.00 | 0.00 | 23 | 1006.9 |
| 20260502034540 | 77 | 136 | 0.0 | 0.0 | 0.00 | 0.00 | 0.00 | 22 | 1006.8 |
| 20260502033043 | 79 | 136 | 0.0 | 0.0 | 0.00 | 0.00 | 0.00 | 20 | 1006.6 |
| 20260502031542 | 78 | 156 | 0.0 | 0.0 | 0.00 | 0.00 | 0.00 | 20 | 1006.4 |
| 20260502030040 | 80 | 249 | 0.0 | 0.0 | 0.00 | 0.00 | 0.00 | 19 | 1006.2 |